[[{"header":{"parameterUnit":"m.s-1","parameterCategory":1,"la1":30.2991,"la2":30.254,"lo1":-89.0895,"lo2":-89.0444,"dy":0.0017,"dx":0.0017,"nx":28,"ny":28,"refTime":"2024-05-04T09:00:00:Z","depth":0,"parameterNumber":2,"parameterNumberName":"U-component_of_WINDS"},"data":[0,0,0,0,0,0,0,0,0,0,0,0,0,0,0,0,0,0,0,0,0,0,0,0,0,0,0,0,0,0,0,0,0,0,0,0,0,0,0,0,0,0,0,0,0,0,0,0,0,0,0,0,0,0,0,0,0,0,-0.5636,-0.5637,0,-0.5645,-0.5645,-0.5645,-0.5649,-0.5649,-0.5649,-0.5649,-0.5658,-0.5658,-0.5659,0,0,0,0,0,0,0,0,0,0,0,0,0,-0.5624,-0.5625,-0.5636,-0.5637,-0.5637,-0.5645,-0.5645,-0.5645,-0.5649,-0.5649,-0.5649,-0.5649,-0.5658,-0.5658,-0.5659,0,0,0,0,0,0,0,0,0,0,0,0,0,-0.5631,-0.5625,-0.5636,-0.564,-0.564,-0.5645,-0.5645,-0.5645,-0.5649,-0.5649,-0.5649,-0.5649,-0.5658,-0.5658,-0.5659,-0.5662,0,0,-0.566,-0.566,0,0,0,0,0,0,0,0,-0.5631,-0.5631,-0.5639,-0.5639,-0.564,-0.5646,-0.5644,-0.5651,-0.5649,-0.5646,-0.5649,-0.5649,-0.5654,-0.5655,-0.5657,-0.5662,-0.5662,-0.566,-0.566,-0.566,-0.5661,0,0,0,0,0,0,0,-0.563,-0.5631,-0.564,-0.5639,-0.564,-0.5641,-0.5642,-0.5645,-0.565,-0.5646,-0.5646,-0.5647,-0.5654,-0.5656,-0.5657,-0.5663,-0.566,-0.566,-0.5661,-0.5661,-0.5671,-0.5671,0,0,0,0,0,0,-0.5629,-0.5631,-0.564,-0.564,-0.5635,-0.5641,-0.5642,-0.5644,-0.565,-0.5651,-0.5647,-0.5647,-0.5655,-0.5656,-0.5657,-0.5661,-0.566,-0.5661,-0.5661,-0.5671,-0.5671,-0.5671,0,0,0,0,0,0,-0.5629,-0.563,-0.5639,-0.5635,-0.5637,-0.5641,-0.5643,-0.5644,-0.5646,-0.5651,-0.5652,-0.5648,-0.5656,-0.5657,-0.5661,-0.5661,-0.5661,-0.5661,-0.5671,-0.5671,-0.5671,-0.5669,0,0,0,0,0,0,-0.5628,-0.563,-0.5631,-0.5635,-0.5637,-0.5642,-0.5643,-0.5644,-0.5646,-0.5647,-0.5652,-0.5653,-0.5656,-0.566,-0.5661,-0.5662,-0.5662,-0.5671,-0.5671,-0.5671,-0.5669,-0.5669,-0.5669,0,0,0,0,0,-0.5628,-0.5629,-0.5631,-0.5632,-0.5638,-0.5642,-0.5643,-0.5646,-0.5646,-0.5648,-0.5651,-0.5653,-0.5661,-0.566,-0.5661,-0.5663,-0.5671,-0.5671,-0.5671,-0.5669,-0.5669,-0.5669,0,0,0,0,0,0,-0.5625,-0.563,-0.5631,-0.5634,-0.5638,-0.5643,-0.5644,-0.5646,-0.5649,-0.565,-0.5653,-0.5655,-0.5658,-0.5661,-0.566,-0.5666,-0.5666,-0.5667,-0.5664,-0.5664,-0.5664,-0.5663,-0.5662,0,0,0,0,0,-0.5624,-0.5627,-0.5632,-0.5634,-0.5636,-0.564,-0.5642,-0.5644,-0.5647,-0.5649,-0.5652,-0.5656,-0.566,-0.5662,-0.5666,-0.5669,-0.5671,-0.5671,-0.567,-0.567,-0.5671,-0.5673,-0.5673,-0.5672,-0.5672,-0.5672,0,0,-0.5623,-0.5627,-0.5628,-0.5633,-0.5636,-0.5639,-0.5641,-0.5644,-0.5646,-0.5649,-0.5653,-0.5656,-0.5661,-0.5664,-0.5666,-0.5667,-0.5671,-0.5671,-0.567,-0.5671,-0.5673,-0.5673,-0.5674,-0.5672,-0.5672,-0.5672,0,0,-0.5624,-0.5626,-0.5629,-0.5631,-0.5636,-0.5638,-0.5639,-0.5644,-0.5646,-0.565,-0.5652,-0.5656,-0.5661,-0.5665,-0.5667,-0.5669,-0.5671,-0.567,-0.567,-0.5672,-0.5672,-0.5672,-0.5673,-0.5674,-0.567,-0.567,-0.567,0,-0.5622,-0.5626,-0.563,-0.5633,-0.5635,-0.5638,-0.5641,-0.5643,-0.5649,-0.565,-0.5651,-0.5659,-0.5662,-0.5667,-0.5667,-0.5669,-0.567,-0.5669,-0.5672,-0.5672,-0.5672,-0.5673,-0.5674,-0.567,-0.567,-0.567,-0.567,0,-0.5625,-0.5628,-0.5629,-0.5634,-0.5636,-0.5639,-0.5643,-0.5645,-0.5648,-0.565,-0.5655,-0.5659,-0.5663,-0.5665,-0.5667,-0.567,-0.567,-0.5671,-0.5672,-0.5672,-0.5673,-0.5674,-0.567,-0.567,-0.567,-0.567,0,0,-0.5622,-0.5629,-0.563,-0.5632,-0.5637,-0.564,-0.5643,-0.5648,-0.565,-0.5653,-0.5656,-0.5661,-0.5663,-0.5665,-0.5668,-0.567,-0.5672,-0.5671,-0.5671,-0.5671,-0.5676,-0.5675,-0.5675,-0.5673,-0.5673,-0.5673,-0.5676,0,-0.5623,-0.5629,-0.5632,-0.5636,-0.5639,-0.5642,-0.5645,-0.5649,-0.5652,-0.5655,-0.5658,-0.5662,-0.5663,-0.5665,-0.5667,-0.5671,-0.5673,-0.5671,-0.5676,-0.5676,-0.5675,-0.5676,-0.5675,-0.5677,-0.5676,-0.5676,-0.5676,0,-0.5625,-0.5629,-0.5633,-0.5638,-0.564,-0.5642,-0.5647,-0.565,-0.5654,-0.5656,-0.5659,-0.5662,-0.5666,-0.5666,-0.5672,-0.567,-0.5673,-0.5675,-0.5675,-0.5676,-0.5676,-0.5677,-0.5678,-0.5678,-0.5677,-0.5677,-0.5677,0,-0.5623,-0.5629,-0.5633,-0.5635,-0.5641,-0.5643,-0.5645,-0.565,-0.5652,-0.5656,-0.5658,-0.5663,-0.5665,-0.5669,-0.5673,-0.5673,-0.5678,-0.5679,-0.568,-0.568,-0.5681,-0.5681,-0.5683,-0.5683,-0.5683,-0.5683,-0.5683,0,-0.5624,-0.5627,-0.5632,-0.5634,-0.5638,-0.5641,-0.5645,-0.5648,-0.5652,-0.5655,-0.5658,-0.5661,-0.5666,-0.567,-0.5673,-0.5677,-0.5678,-0.568,-0.5681,-0.568,-0.568,-0.5682,-0.5682,-0.5683,-0.5683,-0.5683,-0.5683,0,-0.5622,-0.5626,-0.563,-0.5636,-0.5637,-0.5639,-0.5644,-0.5647,-0.565,-0.5654,-0.5655,-0.566,-0.5665,-0.5669,-0.5675,-0.5678,-0.5682,-0.5683,-0.568,-0.5681,-0.5682,-0.5682,-0.5685,-0.5686,-0.5685,-0.5685,-0.5685,0,-0.5623,-0.5625,-0.563,-0.5633,-0.5635,-0.5639,-0.5642,-0.5646,-0.5648,-0.5654,-0.5656,-0.5661,-0.5665,-0.5672,-0.5676,-0.5681,-0.5682,-0.5683,-0.5683,-0.5682,-0.5683,-0.5683,-0.5683,-0.5683,-0.5683,-0.5683,-0.5683,0,-0.5623,-0.5624,-0.5628,-0.5632,-0.5635,-0.5639,-0.5643,-0.5645,-0.565,-0.5653,-0.5657,-0.566,-0.5667,-0.5672,-0.5677,-0.568,-0.5683,-0.5683,-0.5684,-0.5683,-0.5681,-0.5682,-0.568,-0.5683,-0.5683,-0.5683,-0.5683,-0.5683,-0.5622,-0.5624,-0.5629,-0.5633,-0.5636,-0.564,-0.5642,-0.5646,-0.565,-0.5655,-0.5657,-0.5662,-0.5667,-0.5675,-0.5678,-0.5682,-0.5683,-0.5683,-0.5684,-0.5684,-0.5684,-0.568,-0.5683,-0.5683,-0.5683,-0.5683,-0.5683,0,-0.5622,-0.5625,-0.5629,-0.5634,-0.5638,-0.5639,-0.5644,-0.5647,-0.5651,-0.5655,-0.5659,-0.5665,-0.5669,-0.5674,-0.568,-0.5682,-0.5683,-0.5683,-0.5683,-0.5684,-0.5683,-0.5682,-0.5682,-0.5682,-0.5682,-0.5682,-0.5682,-0.5682,-0.5623,-0.5627,-0.5629,-0.5635,-0.5638,-0.5643,-0.5645,-0.5649,-0.5652,-0.5658,-0.5662,-0.5665,-0.567,-0.5676,-0.5681,-0.5682,-0.5684,-0.5684,-0.5685,-0.5684,-0.5684,-0.5684,-0.5683,-0.5684,-0.5684,-0.5686,-0.5686,-0.5686]},{"header":{"parameterUnit":"m.s-1","parameterCategory":1,"la1":30.2991,"la2":30.254,"lo1":-89.0895,"lo2":-89.0444,"dy":0.0017,"dx":0.0017,"nx":28,"ny":28,"refTime":"2024-05-04T09:00:00:Z","depth":0,"parameterNumber":3,"parameterNumberName":"V-component_of_WINDS"},"data":[0,0,0,0,0,0,0,0,0,0,0,0,0,0,0,0,0,0,0,0,0,0,0,0,0,0,0,0,0,0,0,0,0,0,0,0,0,0,0,0,0,0,0,0,0,0,0,0,0,0,0,0,0,0,0,0,0,0,3.4926,3.4927,0,3.4976,3.4976,3.4977,3.4939,3.4937,3.4936,3.4934,3.4981,3.4984,3.4987,0,0,0,0,0,0,0,0,0,0,0,0,0,3.4795,3.4797,3.4926,3.4927,3.4928,3.4976,3.4976,3.4977,3.4939,3.4937,3.4935,3.4933,3.498,3.4984,3.4987,0,0,0,0,0,0,0,0,0,0,0,0,0,3.4849,3.4798,3.4926,3.4914,3.4914,3.4976,3.4976,3.4977,3.4939,3.4937,3.4935,3.4932,3.4979,3.4983,3.4987,3.5062,0,0,3.5,3.5002,0,0,0,0,0,0,0,0,3.4846,3.4854,3.4916,3.4915,3.4915,3.4949,3.4947,3.5006,3.494,3.493,3.4934,3.4931,3.4972,3.4977,3.4991,3.5064,3.5066,3.5,3.5003,3.5005,3.5006,0,0,0,0,0,0,0,3.4842,3.4851,3.4946,3.4916,3.4916,3.4905,3.491,3.4958,3.4964,3.493,3.4928,3.4934,3.4971,3.4987,3.4992,3.5067,3.5,3.5004,3.5007,3.5008,3.5203,3.5206,0,0,0,0,0,0,3.484,3.4848,3.4944,3.4947,3.4874,3.491,3.4915,3.494,3.4963,3.4965,3.4936,3.4932,3.4981,3.4987,3.4994,3.5083,3.5005,3.5009,3.5011,3.5201,3.5204,3.5207,0,0,0,0,0,0,3.4837,3.4849,3.4942,3.4897,3.4908,3.4915,3.4943,3.4943,3.4958,3.4968,3.4968,3.4952,3.498,3.4988,3.5046,3.5084,3.5011,3.5014,3.5198,3.5202,3.5206,3.5262,0,0,0,0,0,0,3.4834,3.4848,3.4878,3.4898,3.4911,3.4995,3.4945,3.4945,3.4966,3.4961,3.4983,3.4984,3.4978,3.504,3.505,3.5088,3.5018,3.5194,3.5199,3.5204,3.5256,3.5267,3.5276,0,0,0,0,0,3.4829,3.4891,3.4879,3.4891,3.4948,3.4997,3.5004,3.4998,3.4969,3.4999,3.5004,3.4983,3.5078,3.5046,3.5057,3.5097,3.5192,3.5198,3.5204,3.5252,3.5265,3.5276,0,0,0,0,0,0,3.4873,3.4893,3.4881,3.4951,3.4973,3.4991,3.5027,3.5012,3.5041,3.5035,3.5025,3.503,3.5091,3.51,3.5064,3.5171,3.513,3.5139,3.5163,3.5175,3.5185,3.5182,3.5021,0,0,0,0,0,3.4892,3.4931,3.4946,3.5006,3.5018,3.5021,3.5042,3.5035,3.5057,3.5065,3.5075,3.5096,3.513,3.5153,3.5185,3.5257,3.5261,3.529,3.53,3.5308,3.5316,3.5354,3.5367,3.5227,3.5227,3.5227,0,0,3.4929,3.4945,3.497,3.5016,3.5032,3.5071,3.5029,3.5073,3.5102,3.5071,3.5127,3.5135,3.5157,3.5223,3.5252,3.5232,3.5355,3.5316,3.5322,3.5326,3.5362,3.5375,3.5387,3.5231,3.523,3.5229,0,0,3.5018,3.5034,3.5087,3.5104,3.5129,3.513,3.5143,3.5163,3.5167,3.5223,3.5201,3.5235,3.5294,3.5311,3.5327,3.5422,3.5404,3.5433,3.5485,3.5522,3.5533,3.5543,3.5577,3.5589,3.544,3.544,3.5441,0,3.5061,3.5122,3.5115,3.5161,3.5181,3.5157,3.5209,3.5225,3.5259,3.5273,3.525,3.5324,3.5338,3.5406,3.5429,3.5443,3.5457,3.5431,3.5532,3.5542,3.5551,3.5583,3.5596,3.5444,3.5444,3.5443,3.5443,0,3.5174,3.5216,3.5255,3.529,3.5314,3.5363,3.5362,3.5387,3.5378,3.5382,3.5438,3.5453,3.5488,3.5504,3.5495,3.5571,3.5558,3.5534,3.5493,3.5568,3.5598,3.561,3.5449,3.5448,3.5447,3.5446,0,0,3.5293,3.5323,3.5337,3.5353,3.5378,3.541,3.5457,3.5492,3.5514,3.5538,3.5576,3.5627,3.5605,3.5624,3.5616,3.5649,3.5723,3.5621,3.5622,3.564,3.5808,3.5826,3.584,3.5711,3.5713,3.5715,3.5806,0,3.5383,3.5467,3.5461,3.5539,3.5578,3.5555,3.5595,3.5615,3.5619,3.5651,3.5655,3.5692,3.566,3.5671,3.5702,3.5708,3.5757,3.5701,3.5746,3.5748,3.5742,3.5856,3.5875,3.596,3.5817,3.5819,3.5821,0,3.55,3.5529,3.5611,3.5631,3.5647,3.5684,3.5715,3.5747,3.5768,3.5768,3.5789,3.5776,3.5822,3.578,3.5843,3.5806,3.5823,3.5829,3.5832,3.5836,3.5789,3.5863,3.5987,3.6,3.5839,3.5838,3.5836,0,3.5578,3.5638,3.5695,3.5709,3.5733,3.576,3.5771,3.5789,3.5811,3.5838,3.5851,3.5883,3.59,3.5924,3.5919,3.5889,3.5984,3.5941,3.5985,3.5985,3.6006,3.6005,3.6135,3.6017,3.6017,3.6017,3.6017,0,3.568,3.5731,3.5731,3.5766,3.5822,3.5815,3.587,3.5878,3.5895,3.593,3.5911,3.5944,3.5936,3.5969,3.5965,3.6018,3.6026,3.6027,3.6025,3.6029,3.6029,3.6041,3.6035,3.602,3.6019,3.6019,3.6018,0,3.5778,3.578,3.584,3.5858,3.5864,3.5905,3.592,3.5952,3.5955,3.5999,3.6009,3.6013,3.605,3.6048,3.609,3.6087,3.6152,3.6144,3.6146,3.6144,3.6188,3.6184,3.6331,3.6349,3.6219,3.622,3.6221,0,3.5843,3.5882,3.5905,3.5928,3.5941,3.5978,3.6,3.5993,3.6017,3.6043,3.6072,3.6108,3.6137,3.6197,3.6202,3.6234,3.6226,3.6275,3.6231,3.6233,3.6227,3.6225,3.6229,3.6284,3.6286,3.6287,3.6288,0,3.5958,3.5957,3.599,3.6024,3.6051,3.6076,3.6099,3.6119,3.6115,3.6141,3.618,3.6202,3.6245,3.6281,3.6311,3.6321,3.6304,3.6302,3.6314,3.6318,3.6318,3.6318,3.617,3.6299,3.6297,3.6297,3.6296,3.6296,3.6042,3.6076,3.6097,3.6134,3.6151,3.6173,3.6205,3.6211,3.6244,3.6279,3.6273,3.6316,3.6335,3.6374,3.6387,3.642,3.6402,3.6419,3.6423,3.6428,3.6433,3.6312,3.6425,3.6424,3.6424,3.6424,3.6424,0,3.6157,3.6169,3.6204,3.6237,3.6266,3.6248,3.6273,3.6298,3.6337,3.6356,3.6385,3.6429,3.6463,3.6471,3.6504,3.6528,3.6521,3.6537,3.6535,3.6538,3.6447,3.6433,3.6542,3.6542,3.6542,3.6542,3.6542,3.6542,3.622,3.6276,3.6277,3.6341,3.6352,3.6396,3.6411,3.6431,3.6447,3.6497,3.6526,3.6531,3.6546,3.6579,3.661,3.6611,3.6624,3.6643,3.6641,3.6556,3.6544,3.6533,3.652,3.6646,3.6646,3.673,3.673,3.6731]}]]